Temp
6 6 9 4 6 7 10 11 13 13 13 13 12 13 13 14 14 14 14 14 15 15 15 15 14 15 14 15 15 15 15 15 16 16 16 15 15 15 15 15 15 14 16
6 6 6 3 6 7 10 11 12 13 13 13 13 12 13 13 15 14 15 14 15 14 14 15 14 14 14 14 15 14 14 15 15 16 16 15 15 15 15 15 15 15 16
5 5 5 3 4 6 7 11 12 13 13 13 13 13 13 13 13 13 13 13 15 15 14 14 14 14 14 14 14 15 14 14 15 15 15 14 14 15 16 15 15 15 16
5 4 4 3 5 5 7 7 11 12 12 13 13 13 13 13 13 13 13 13 13 13 14 14 14 14 14 14 14 14 14 14 15 15 16 14 15 15 15 15 15 15 16
3 4 6 5 4 5 7 9 10 10 11 11 12 12 12 12 12 12 12 12 12 14 13 14 14 15 14 14 14 14 14 14 14 15 14 14 15 15 15 15 15 15 15
2 4 5 7 7 7 8 8 9 10 10 11 11 11 12 12 12 12 12 13 12 12 13 14 14 14 15 15 14 14 14 14 14 14 14 14 14 14 14 15 15 15 15
3 5 5 5 6 6 6 7 7 8 9 10 10 11 11 11 11 11 11 12 12 12 12 13 14 14 14 14 15 15 14 14 14 13 13 13 13 14 15 14 14 15 15
3 4 4 5 5 5 5 6 6 7 8 9 9 9 10 10 11 11 11 11 12 12 12 12 13 13 14 14 14 14 14 15 14 14 13 13 13 13 15 15 14 15 15
3 3 3 3 4 4 5 6 6 6 6 7 8 8 9 9 9 10 10 11 11 11 12 12 12 13 13 13 13 14 14 14 14 14 13 13 13 13 14 15 14 14 15
3 3 3 4 4 4 4 4 5 5 6 6 7 7 8 8 9 9 10 10 10 11 11 11 11 12 12 12 13 13 13 14 14 14 14 13 13 13 14 14 14 14 14
1 2 3 3 3 4 4 4 4 4 5 6 7 7 7 8 8 9 9 9 9 10 10 11 11 11 12 12 12 13 12 12 13 12 13 13 13 14 14 14 14 14 14
-0 2 2 3 3 3 3 4 4 4 4 4 5 6 6 6 7 7 8 8 8 9 9 9 10 10 11 11 11 12 12 12 12 13 13 13 13 13 14 14 14 13 13
1 1 1 2 2 2 2 2 3 3 3 4 4 4 4 4 5 5 6 6 7 7 8 8 9 9 10 10 10 11 11 11 12 12 13 13 13 13 13 14 14 13 13
-0 0 0 1 1 1 1 1 1 1 1 2 2 2 2 1 0 1 2 4 4 5 6 6 7 7 8 9 9 10 10 10 11 12 12 13 13 13 13 14 14 13 14
-1 -0 -0 0 0 1 1 1 1 1 1 1 1 1 1 1 1 1 -0 -1 -0 2 3 4 5 5 6 6 7 8 9 9 10 10 12 13 13 12 13 13 14 14 13
-2 -1 -1 -1 -1 -0 -0 0 -0 -1 -2 -4 -4 -5 -4 -3 -3 -2 -1 -0 -1 -3 -1 1 2 3 3 4 5 6 7 8 9 9 10 11 12 13 13 13 13 14 14
-3 -2 -1 -1 -1 -1 -1 -1 -2 -3 -4 -4 -5 -5 -6 -6 -5 -5 -6 -6 -6 -2 -1 -2 -3 -0 1 2 2 4 5 6 7 8 9 10 11 12 12 12 12 13 14
-3 -2 -2 -1 -1 -1 -2 -2 -2 -2 -3 -4 -3 -3 -4 -3 -3 -4 -5 -6 -7 -7 -6 -4 -3 -3 -3 -1 1 2 3 4 5 6 8 9 10 10 10 11 12 13 13
-2 -2 -2 -2 -2 -2 -2 -2 -3 -3 -3 -4 -3 -3 -2 -2 -3 -3 -3 -3 -4 -5 -7 -7 -6 -5 -4 -4 -3 -1 1 1 4 5 6 7 8 10 10 10 11 11 13
-3 -3 -3 -3 -4 -4 -4 -5 -6 -6 -6 -6 -6 -6 -6 -6 -5 -4 -4 -4 -4 -5 -6 -7 -7 -7 -7 -6 -5 -4 -2 1 1 3 5 6 7 8 9 10 11 11 12
-4 -4 -4 -4 -5 -5 -6 -6 -7 -7 -7 -7 -7 -7 -8 -8 -8 -9 -8 -8 -8 -8 -7 -7 -7 -7 -7 -7 -6 -5 -3 0 2 3 4 6 7 7 8 10 10 10 12
-5 -5 -5 -5 -5 -6 -7 -7 -8 -8 -7 -7 -7 -7 -7 -8 -8 -9 -9 -9 -9 -8 -8 -8 -8 -8 -8 -7 -7 -7 -3 -2 1 0 2 4 5 6 6 7 10 10 11
-5 -5 -5 -5 -5 -6 -7 -8 -8 -7 -7 -7 -7 -8 -7 -8 -9 -9 -9 -9 -9 -9 -9 -9 -9 -8 -8 -8 -8 -7 -5 -3 -5 0 1 2 2 4 5 6 7 9 9
-5 -6 -5 -5 -5 -7 -7 -8 -8 -8 -8 -8 -8 -8 -9 -9 -9 -9 -9 -9 -9 -9 -9 -9 -9 -9 -9 -8 -8 -7 -7 -7 -6 -6 -4 0 1 1 3 5 7 8 8
-5 -6 -6 -6 -6 -7 -8 -8 -8 -9 -9 -9 -9 -9 -9 -9 -9 -9 -9 -10 -10 -10 -10 -9 -9 -9 -9 -9 -9 -8 -8 -8 -7 -6 -6 -5 -3 -2 -1 2 5 6 8
-6 -6 -6 -6 -7 -7 -7 -8 -9 -9 -9 -9 -9 -9 -9 -9 -9 -9 -9 -10 -10 -10 -10 -10 -10 -10 -9 -9 -9 -9 -9 -8 -8 -7 -6 -6 -6 -3 -2 1 2 5 5
Height
1541 1538 1537 1539 1538 1536 1534 1532 1531 1531 1531 1529 1529 1528 1528 1527 1527 1528 1527 1526 1527 1526 1527 1529 1528 1528 1529 1531 1531 1532 1531 1531 1531 1530 1531 1531 1531 1532 1532 1533 1534 1534 1534
1538 1537 1537 1538 1537 1536 1534 1533 1531 1531 1531 1531 1530 1529 1530 1528 1527 1527 1526 1527 1525 1525 1527 1528 1528 1528 1529 1525 1532 1531 1532 1531 1532 1531 1532 1532 1532 1533 1534 1535 1535 1534 1535
1537 1536 1536 1538 1537 1535 1532 1532 1531 1531 1530 1530 1529 1529 1529 1528 1526 1526 1527 1527 1526 1526 1527 1526 1527 1528 1529 1530 1531 1531 1532 1532 1532 1532 1533 1533 1534 1534 1534 1535 1535 1535 1535
1536 1536 1535 1536 1534 1533 1531 1531 1531 1530 1529 1528 1528 1527 1526 1526 1525 1527 1527 1527 1526 1527 1526 1525 1525 1527 1528 1529 1528 1530 1531 1533 1533 1533 1534 1534 1537 1535 1534 1535 1535 1536 1536
1536 1535 1535 1533 1533 1532 1531 1530 1530 1529 1528 1527 1527 1526 1525 1525 1525 1525 1525 1525 1525 1525 1525 1526 1526 1527 1526 1528 1529 1529 1530 1532 1533 1533 1534 1536 1536 1535 1535 1535 1536 1536 1536
1536 1535 1534 1534 1533 1532 1531 1531 1530 1529 1528 1527 1527 1526 1524 1524 1523 1524 1522 1523 1522 1523 1524 1525 1526 1526 1526 1526 1526 1528 1529 1530 1532 1533 1534 1536 1535 1535 1535 1535 1536 1536 1537
1534 1535 1535 1534 1533 1533 1533 1532 1531 1528 1527 1526 1526 1524 1523 1522 1521 1521 1521 1521 1520 1520 1520 1522 1523 1524 1524 1525 1526 1526 1527 1528 1529 1532 1533 1533 1533 1533 1534 1535 1536 1536 1537
1534 1534 1534 1534 1535 1536 1535 1532 1529 1527 1525 1525 1524 1522 1522 1521 1521 1519 1519 1519 1517 1517 1518 1519 1519 1520 1521 1522 1524 1525 1526 1526 1527 1529 1532 1532 1532 1532 1533 1534 1535 1536 1536
1533 1533 1533 1533 1533 1533 1532 1530 1528 1526 1525 1526 1524 1522 1522 1522 1520 1518 1518 1516 1514 1515 1515 1515 1516 1517 1518 1519 1519 1522 1523 1524 1524 1525 1529 1531 1530 1530 1531 1532 1532 1534 1536
1533 1533 1533 1533 1532 1532 1531 1529 1528 1527 1526 1525 1523 1521 1519 1519 1517 1516 1516 1515 1514 1512 1512 1512 1513 1513 1515 1515 1516 1517 1519 1521 1522 1523 1523 1526 1527 1527 1529 1529 1530 1532 1534
1532 1532 1532 1532 1532 1531 1530 1529 1528 1527 1525 1522 1519 1517 1516 1514 1514 1514 1513 1511 1510 1509 1509 1509 1511 1510 1510 1511 1512 1513 1514 1516 1516 1519 1521 1522 1523 1524 1526 1527 1527 1528 1531
1531 1532 1532 1531 1531 1530 1530 1529 1527 1525 1523 1520 1518 1517 1516 1514 1511 1510 1509 1507 1506 1506 1504 1505 1506 1507 1505 1506 1507 1509 1509 1510 1512 1513 1516 1518 1519 1520 1522 1523 1524 1525 1525
1529 1529 1529 1529 1529 1528 1527 1526 1524 1523 1521 1519 1517 1514 1512 1510 1509 1507 1506 1504 1502 1500 1498 1500 1500 1501 1502 1502 1501 1503 1503 1505 1505 1507 1509 1512 1512 1515 1517 1519 1521 1523 1523
1528 1528 1528 1527 1527 1526 1525 1524 1523 1521 1519 1517 1515 1512 1510 1508 1506 1503 1500 1499 1500 1497 1495 1495 1495 1495 1495 1496 1497 1497 1498 1498 1499 1500 1502 1506 1507 1508 1512 1513 1516 1518 1520
1525 1526 1526 1526 1526 1525 1524 1522 1521 1519 1517 1516 1514 1512 1510 1507 1504 1502 1500 1497 1494 1492 1492 1492 1490 1489 1489 1490 1490 1491 1492 1492 1493 1493 1494 1497 1500 1502 1505 1507 1509 1513 1515
1523 1523 1524 1524 1524 1523 1522 1521 1519 1517 1514 1512 1510 1507 1504 1503 1502 1502 1501 1498 1495 1491 1489 1489 1488 1486 1485 1485 1484 1485 1485 1486 1486 1486 1488 1490 1492 1495 1497 1500 1503 1505 1509
1520 1521 1521 1521 1521 1521 1520 1518 1516 1514 1512 1511 1509 1508 1505 1500 1498 1497 1496 1495 1493 1492 1490 1487 1484 1481 1482 1480 1477 1477 1478 1478 1478 1480 1479 1482 1484 1487 1490 1493 1496 1498 1502
1518 1519 1519 1519 1519 1518 1518 1517 1515 1512 1510 1509 1507 1504 1504 1500 1497 1495 1494 1491 1486 1484 1483 1482 1480 1476 1475 1475 1473 1471 1471 1471 1470 1471 1472 1474 1476 1479 1482 1485 1490 1492 1494
1515 1517 1517 1517 1516 1515 1514 1514 1512 1511 1508 1506 1504 1503 1501 1500 1497 1493 1491 1488 1485 1483 1481 1479 1478 1475 1473 1471 1467 1465 1463 1462 1463 1464 1464 1466 1467 1470 1474 1477 1481 1484 1487
1512 1513 1514 1515 1514 1512 1511 1511 1510 1508 1506 1504 1502 1500 1496 1496 1493 1491 1490 1488 1485 1481 1480 1478 1475 1476 1474 1469 1463 1460 1456 1456 1456 1455 1457 1459 1460 1462 1466 1469 1472 1475 1477
1509 1510 1511 1512 1511 1509 1508 1507 1506 1504 1502 1500 1498 1496 1494 1493 1492 1490 1487 1485 1483 1482 1479 1475 1473 1471 1469 1467 1460 1455 1452 1451 1451 1450 1449 1451 1453 1455 1457 1460 1463 1466 1468
1508 1508 1508 1508 1507 1506 1504 1503 1501 1499 1499 1496 1495 1493 1491 1490 1488 1486 1484 1481 1479 1478 1475 1474 1472 1471 1469 1466 1461 1457 1448 1446 1447 1442 1445 1449 1451 1451 1448 1449 1451 1457 1458
1503 1505 1504 1503 1502 1501 1500 1499 1498 1496 1495 1494 1492 1489 1487 1485 1483 1481 1480 1477 1476 1474 1472 1470 1470 1469 1466 1463 1462 1463 1456 1446 1441 1440 1437 1439 1438 1438 1437 1437 1439 1442 1447
1499 1499 1500 1498 1497 1497 1495 1495 1494 1492 1491 1490 1486 1484 1482 1481 1479 1477 1475 1473 1471 1468 1468 1468 1467 1465 1461 1458 1457 1458 1457 1451 1449 1435 1433 1432 1433 1433 1429 1429 1430 1433 1436
1494 1494 1496 1494 1492 1492 1492 1491 1489 1488 1488 1485 1482 1481 1479 1477 1475 1473 1470 1468 1466 1464 1462 1462 1460 1458 1456 1455 1454 1452 1450 1448 1447 1442 1431 1425 1424 1425 1422 1423 1421 1422 1426
1490 1490 1491 1489 1489 1488 1487 1487 1485 1483 1483 1480 1478 1477 1474 1472 1470 1468 1466 1464 1461 1459 1457 1456 1454 1453 1452 1450 1449 1448 1447 1445 1441 1439 1433 1430 1421 1414 1416 1414 1415 1416 1415
Wind_Speed
3 9 12 18 19 19 13 5 3 5 8 9 8 6 5 3 3 4 5 4 4 3 3 1 2 3 5 5 3 2 3 5 6 5 2 2 5 6 6 4 3 4 2
5 8 12 16 16 16 13 13 10 6 5 7 8 8 7 4 4 1 2 0 1 3 4 3 3 4 4 7 3 0 4 4 6 4 2 1 5 9 6 4 6 5 3
5 7 10 14 15 15 14 10 8 6 6 6 5 7 9 10 7 7 7 6 4 4 0 2 2 3 3 5 4 5 3 5 6 5 2 2 4 5 8 7 8 5 4
6 8 9 13 14 16 13 14 9 7 7 7 6 6 6 10 11 10 8 7 7 7 4 2 1 1 1 3 4 7 7 6 6 6 3 2 6 8 7 9 9 7 5
5 7 7 9 12 13 13 13 11 11 9 7 8 6 6 6 11 11 11 11 10 10 9 6 4 4 4 3 4 4 7 7 8 7 3 6 8 12 8 9 9 7 6
4 5 7 7 9 10 11 12 13 12 11 10 8 7 7 7 7 8 10 13 13 12 11 9 8 7 8 8 7 8 7 8 10 9 6 9 11 12 12 11 11 9 8
5 5 6 9 10 12 13 12 13 13 12 11 12 11 11 10 10 10 10 10 11 14 15 13 12 12 10 10 11 11 11 11 11 9 9 11 13 16 14 14 13 12 10
5 6 8 9 9 10 12 14 16 15 15 15 15 13 13 13 13 15 15 14 14 13 13 13 14 14 14 13 13 14 14 14 13 12 11 13 14 17 12 14 17 16 13
4 5 6 7 9 11 11 12 14 16 17 16 16 16 16 15 16 16 17 18 17 17 17 16 15 16 17 16 15 15 16 16 16 13 12 14 16 19 15 15 17 20 17
2 3 4 6 8 10 12 15 16 16 16 18 18 17 18 17 17 18 19 20 20 20 19 19 19 17 18 19 18 19 18 17 18 17 17 19 21 21 16 16 20 20 21
3 3 4 6 8 10 12 14 16 18 20 20 21 23 23 22 20 20 21 20 21 22 23 22 22 21 20 20 21 21 21 20 20 16 16 18 21 22 20 18 19 23 27
3 2 2 4 7 9 11 13 15 18 21 24 25 24 24 24 24 24 23 23 22 22 22 23 23 24 23 22 19 20 23 24 24 24 21 17 23 24 22 22 20 18 30
3 1 4 6 8 10 12 15 18 21 24 25 27 28 28 26 24 23 23 23 24 25 22 22 23 22 23 24 22 22 21 24 27 29 28 25 24 26 25 25 24 23 23
4 1 4 7 10 12 14 16 18 19 22 24 25 26 27 26 25 26 27 25 23 23 25 26 24 24 24 24 25 25 25 24 26 30 33 31 29 29 27 27 28 28 26
4 1 3 5 9 12 14 17 18 19 21 22 21 21 22 23 24 25 26 25 26 25 23 24 27 28 26 26 26 27 28 28 28 30 33 36 35 34 30 29 31 33 31
4 1 3 6 9 12 15 18 19 20 22 21 20 21 23 23 21 21 21 20 22 24 26 26 25 26 28 27 27 27 29 31 31 32 34 36 38 38 36 32 34 34 35
5 1 3 7 10 14 16 18 17 16 18 15 16 17 17 21 24 24 22 19 18 20 22 25 24 24 25 27 29 29 30 31 33 35 35 37 37 41 41 37 36 38 38
5 2 3 7 11 14 16 17 17 17 17 16 18 20 21 23 25 26 24 23 23 24 23 21 22 24 26 27 28 31 32 33 35 36 37 38 41 41 43 42 36 40 41
6 3 4 8 11 13 15 16 17 17 16 15 17 18 21 23 24 25 26 27 28 27 22 19 20 22 26 28 28 29 32 37 37 38 39 40 40 43 43 44 39 35 43
6 2 4 8 10 12 13 13 13 14 13 14 12 14 18 19 20 21 21 23 25 26 25 22 22 21 22 23 25 30 34 34 35 38 38 40 41 42 42 44 45 41 40
7 3 4 7 8 10 10 11 13 13 14 14 14 15 14 14 15 15 16 17 18 19 20 22 23 22 22 22 27 26 33 34 26 26 28 32 36 41 43 43 42 45 40
8 5 5 7 9 11 11 13 13 13 14 15 15 14 15 15 17 17 17 17 17 18 18 18 18 21 21 19 21 27 18 21 20 22 19 20 17 23 28 34 44 46 44
9 7 7 9 11 12 13 13 12 13 14 14 14 17 18 19 19 19 18 17 17 16 18 18 18 18 21 18 16 13 13 10 30 21 18 16 19 25 23 27 33 40 45
11 8 8 10 11 11 13 13 14 15 15 16 18 17 19 19 20 19 18 17 17 17 18 18 17 18 18 21 19 17 20 24 23 22 24 26 23 24 31 32 30 40 45
11 8 8 10 13 12 15 15 14 15 15 16 17 18 19 20 18 19 19 19 18 17 19 19 20 20 21 22 22 22 21 22 23 28 31 36 32 31 32 31 38 35 34
10 8 10 11 13 15 17 17 15 16 17 18 18 20 19 18 19 18 18 18 19 20 20 20 20 21 22 23 24 24 25 25 24 25 29 30 37 41 37 35 34 39 31
Wind_Direction
345 35 42 14 19 22 25 36 10 16 7 3 9 33 58 52 67 63 58 24 349 343 328 352 293 247 229 221 237 346 350 355 357 2 43 136 158 165 150 143 129 198 170
35 39 38 20 23 24 33 37 37 18 355 331 336 355 346 5 310 285 214 239 105 54 338 307 295 284 275 220 258 77 316 334 335 342 343 241 201 206 215 195 174 214 207
45 41 42 28 25 22 26 29 31 23 28 6 347 305 305 304 322 314 326 296 262 244 240 4 316 311 310 249 266 271 271 301 315 316 318 75 312 236 213 207 202 210 197
44 41 30 33 30 21 20 16 5 347 358 352 336 322 298 284 290 293 299 302 300 302 302 172 123 303 278 270 270 283 291 292 290 292 259 91 253 277 220 207 197 197 183
35 37 30 32 33 24 17 9 2 3 357 342 344 338 324 295 275 282 286 291 296 287 300 318 288 249 216 230 264 268 274 286 279 272 227 245 206 275 243 218 212 203 182
65 49 31 15 9 11 4 352 350 351 347 343 329 325 324 310 308 299 288 279 283 282 275 269 263 258 246 236 226 240 252 260 269 263 230 238 232 249 252 235 221 216 203
55 61 48 29 19 12 10 5 360 353 346 339 330 328 319 314 307 296 295 292 288 283 276 264 260 256 259 255 247 243 235 248 253 253 262 256 261 232 245 241 228 221 221
61 44 30 26 27 22 15 9 5 1 353 344 340 337 325 320 311 306 302 296 287 285 284 273 261 257 254 256 256 256 254 250 247 245 236 255 259 256 248 237 235 225 221
66 48 35 25 17 7 4 7 5 2 2 358 352 345 337 330 325 319 308 300 297 292 287 283 273 261 256 253 250 254 256 254 253 239 237 256 264 267 254 237 239 229 227
82 54 29 16 10 10 6 2 1 2 356 351 350 344 337 327 320 313 309 306 301 295 291 285 279 272 261 258 250 248 251 254 257 253 235 239 248 254 257 245 238 232 230
46 37 29 20 11 5 358 354 354 353 351 348 344 340 337 332 324 314 308 305 300 295 292 288 282 278 267 261 255 251 249 244 242 242 255 256 266 264 259 245 243 243 224
104 74 36 16 8 4 1 356 354 352 351 350 347 343 338 334 329 323 315 307 303 296 293 289 285 281 276 271 265 252 249 245 243 242 232 236 262 265 258 248 244 242 217
154 75 15 10 8 5 0 359 355 352 351 349 346 343 343 339 332 327 322 316 310 304 300 292 289 282 277 275 271 262 255 252 247 242 238 227 235 254 259 250 240 242 242
158 87 24 13 7 3 2 359 355 351 349 347 345 341 341 341 339 336 332 326 318 311 307 303 297 290 286 279 272 268 263 260 255 249 242 236 234 242 248 247 242 239 242
161 118 12 1 358 357 355 353 350 347 345 342 341 337 334 333 331 331 331 332 329 321 314 306 303 300 290 284 278 271 267 264 258 256 250 243 236 239 242 244 243 241 240
169 163 5 360 356 352 350 351 350 349 346 343 340 337 338 337 334 329 325 320 321 322 322 317 309 302 299 292 283 278 272 267 263 259 256 249 241 239 239 241 242 241 240
180 190 350 350 349 350 350 350 350 345 343 338 332 332 332 332 332 331 328 326 321 311 311 317 317 308 298 294 292 285 278 273 265 261 257 253 249 242 241 241 241 241 240
175 217 323 341 344 345 344 344 343 340 338 331 326 325 322 320 323 322 321 322 321 323 322 317 313 312 310 302 293 289 286 276 270 266 261 258 250 248 243 241 244 242 241
197 236 322 336 338 339 338 337 337 333 333 324 321 315 310 310 310 311 313 314 314 316 318 321 316 313 307 305 304 294 286 282 277 271 268 263 259 249 248 243 237 245 241
202 237 328 332 332 332 336 331 327 325 322 317 316 313 310 313 311 307 302 301 305 308 311 310 312 310 308 308 304 298 296 285 283 279 273 270 265 259 248 249 245 241 244
204 229 302 319 318 326 325 325 321 318 316 316 310 312 313 309 306 305 305 305 306 304 303 307 310 312 311 311 315 305 293 296 290 292 289 281 277 269 261 247 248 238 248
198 223 284 305 314 319 322 318 315 311 309 310 310 308 306 308 306 307 300 300 299 299 300 302 304 303 304 311 309 313 312 298 271 262 257 258 270 261 259 258 246 245 239
202 220 270 301 313 317 317 317 313 311 310 308 305 307 307 306 304 303 297 296 293 292 294 296 296 295 298 301 299 293 313 303 323 284 262 249 258 244 245 240 244 239 246
201 234 280 299 310 315 316 314 312 311 306 303 307 304 304 305 301 297 296 295 293 294 289 287 287 286 290 293 294 283 273 282 290 301 289 268 268 268 253 247 240 235 235
208 229 266 298 312 313 314 311 307 300 298 301 301 301 300 297 296 297 296 295 293 292 288 286 286 285 283 282 283 286 284 280 276 277 286 299 289 273 271 261 244 247 238
213 246 276 296 303 307 309 303 298 296 297 298 299 297 297 296 296 294 294 292 290 289 288 286 284 280 278 277 276 275 276 276 277 280 285 286 292 283 282 273 269 251 261